Simultaneous Nadir Overpasses (SNOs) Predictions

Prediction of SNOs between GOES-17 and METOP-B Satellite Orbit:

Table of predicted SNOs for the next 14.0 days since TLE Epoch: 8/20/2022
Index Date Time (GOES-17) GOES-17 Lat,Lon METOP-B Lat,Lon Distance(km) Time Diff (sec)
1 08/20/2022 18:35:05 -0.03,-137.32 -0.31,-136.00 149.41 80
2 08/22/2022 06:51:24 0.03,-137.32 -0.71,-140.60 374.01 80
3 08/23/2022 06:33:25 0.03,-137.32 0.43,-135.61 195.56 80
4 08/24/2022 18:49:35 -0.04,-137.32 0.62,-140.16 323.74 80
5 08/25/2022 18:31:35 -0.03,-137.32 -0.52,-135.17 245.52 80
6 08/27/2022 06:47:55 0.04,-137.31 -0.50,-139.76 278.80 80
7 08/28/2022 06:29:54 0.04,-137.31 0.59,-134.76 290.21 80
8 08/29/2022 18:46:06 -0.04,-137.31 0.40,-139.33 229.75 80
9 08/30/2022 18:28:05 -0.04,-137.30 -0.69,-134.32 338.98 80
10 09/01/2022 06:44:24 0.04,-137.28 -0.33,-138.92 186.28 80
11 09/02/2022 06:26:24 0.04,-137.27 0.77,-133.92 381.86 80
